EW3012 Livadea RO current weather conditions

sailwx.info

Wind from 152 at 0 knots gusting 4

Air temperature 21.1° C
Dewpoint 14.7° C

Last reported at 2018-May-27 09:09 UTC.
Time now 2018-May-27 09:29 UTC

Location: N 45°12' E 025°55'.
View on Google Maps.

See reports from other nearby stations

  
Tides and Currents Weather Stations Pressure Air Temp Water Temp Dewpoint Dewpoint Depression Visibility Wind Speed Wind Dir Waves Ship Positions
date/time (UTC)wind fromknots sea level pressurealtimeterstation pressurevisibilityair tempwater tempwave heightnotes
2018-May-27 09:09 152 0 gusting 4 21.1
2018-May-27 09:04 119 21.1
2018-May-27 08:59 165 21.1
2018-May-27 08:54 139 20.6
2018-May-27 08:49 139 20.6
2018-May-27 08:43 125 20.6
2018-May-27 08:38 124 0 gusting 4 20.6
2018-May-27 08:33 030 0 gusting 3 20.6
2018-May-27 08:28 193 20.6
2018-May-27 08:23 148 20.6
2018-May-27 08:17 139 0 gusting 2 20.0
2018-May-27 08:12 145 20.0
2018-May-27 08:07 119 20.6
2018-May-27 08:02 083 0 gusting 6 20.0
2018-May-27 07:57 039 0 gusting 6 20.6
2018-May-27 07:52 111 0 gusting 4 20.0
2018-May-27 07:47 132 0 gusting 4 20.0
2018-May-27 07:42 356 0 gusting 5 19.4
2018-May-27 07:37 131 1 gusting 6 19.4
2018-May-27 07:31 111 1 gusting 6 19.4
2018-May-27 07:26 144 0 gusting 5 19.4
2018-May-27 07:21 117 19.4
2018-May-27 07:16 058 19.4
2018-May-27 07:10 186 20.0
2018-May-27 07:05 270 20.0
2018-May-27 07:00 235 19.4
2018-May-27 06:55 161 18.3
2018-May-27 06:50 060 18.3
2018-May-27 06:45 322 18.3
2018-May-27 06:39 300 18.3
2018-May-27 06:34 162 18.3
2018-May-27 06:29 125 18.3
2018-May-27 06:24 124 18.3
2018-May-27 06:19 131 18.9
2018-May-27 06:14 235 18.3
2018-May-27 06:08 226 18.3
2018-May-27 06:03 236 17.2
2018-May-27 05:58 238 16.7
2018-May-27 05:53 236 16.1
2018-May-27 05:48 236 15.6
2018-May-27 05:43 236 15.6
2018-May-27 05:38 236 15.0
2018-May-27 05:33 236 15.0
2018-May-27 05:27 235 15.0
2018-May-27 05:22 268 14.4
2018-May-27 05:17 252 14.4
2018-May-27 05:12 255 13.9
2018-May-27 05:07 250 13.9
2018-May-27 05:02 240 13.9
2018-May-27 04:57 259 13.3
2018-May-27 04:51 235 13.3
2018-May-27 04:46 228 13.3
2018-May-27 04:41 226 13.3
2018-May-27 04:36 225 12.8
2018-May-27 04:31 226 12.2
2018-May-27 04:26 259 12.2
2018-May-27 04:20 259 12.2
2018-May-27 04:15 259 11.7
2018-May-27 04:10 259 11.7
2018-May-27 04:05 259 11.7
2018-May-27 04:00 259 11.1
2018-May-27 03:55 259 11.1
2018-May-27 03:50 244 10.6
2018-May-27 03:44 252 10.6
2018-May-27 03:39 280 10.0
2018-May-27 03:34 277 10.0
2018-May-27 03:29 225 10.0
2018-May-27 03:24 270 10.0
2018-May-27 03:19 242 9.4
2018-May-27 03:14 242 9.4
2018-May-27 03:09 240 10.0
2018-May-27 03:03 229 10.0
2018-May-27 02:58 243 10.0
2018-May-27 02:53 240 10.0
2018-May-27 02:48 274 10.0
2018-May-27 02:43 271 10.0
2018-May-27 02:38 346 10.0
2018-May-27 02:32 348 0 gusting 1 10.0
2018-May-27 02:27 236 0 gusting 3 10.0
2018-May-27 02:22 221 10.0
2018-May-27 02:17 228 10.0
2018-May-27 02:12 323 10.0
2018-May-27 02:06 323 10.0
2018-May-27 02:01 323 10.0
2018-May-27 01:56 323 10.0
2018-May-27 01:51 323 10.0
2018-May-27 01:46 323 10.6
2018-May-27 01:41 323 10.6
2018-May-27 01:35 252 10.6
2018-May-27 01:30 281 10.6
2018-May-27 01:25 281 10.6
2018-May-27 01:20 283 11.1
2018-May-27 01:15 282 11.1
2018-May-27 01:09 282 11.7
2018-May-27 01:04 274 0 gusting 3 11.7
2018-May-27 00:59 270 0 gusting 3 11.7
2018-May-27 00:54 259 11.7
2018-May-27 00:49 266 11.7
2018-May-27 00:44 266 12.2
2018-May-27 00:38 267 1 gusting 6 12.2
2018-May-27 00:33 259 2 gusting 6 12.2
2018-May-27 00:28 281 2 gusting 6 12.2
2018-May-27 00:23 268 1 gusting 6 12.2
2018-May-27 00:18 266 0 gusting 4 11.7
2018-May-27 00:13 294 11.7
2018-May-27 00:08 063 11.7
2018-May-27 00:03 063 11.7
2018-May-26 23:57 064 11.7
2018-May-26 23:52 067 12.2
2018-May-26 23:47 018 12.2
2018-May-26 23:42 264 12.2
2018-May-26 23:37 290 12.2
2018-May-26 23:32 287 12.2
2018-May-26 23:26 278 12.8
2018-May-26 23:21 278 12.8
2018-May-26 23:16 347 13.3
2018-May-26 23:11 268 13.3
2018-May-26 23:06 275 0 gusting 5 13.3
2018-May-26 23:01 287 0 gusting 5 13.3
2018-May-26 22:55 250 0 gusting 4 12.8
2018-May-26 22:50 231 12.8
2018-May-26 22:45 229 13.3
2018-May-26 22:40 234 13.3
2018-May-26 22:35 266 13.3
2018-May-26 22:29 270 13.3
2018-May-26 22:24 267 13.9
2018-May-26 22:19 264 13.9
2018-May-26 22:14 266 13.9
2018-May-26 22:09 284 13.3
2018-May-26 22:04 281 13.3
2018-May-26 21:58 238 13.3
2018-May-26 21:53 236 13.9
2018-May-26 21:48 238 13.9
2018-May-26 21:43 231 13.9
2018-May-26 21:38 290 13.9
2018-May-26 21:32 289 13.9
2018-May-26 21:27 289 13.9
2018-May-26 21:22 345 14.4
2018-May-26 21:17 329 14.4
2018-May-26 21:12 328 14.4
2018-May-26 21:07 328 14.4
2018-May-26 21:01 328 14.4
2018-May-26 20:56 328 15.0
2018-May-26 20:51 329 15.0
2018-May-26 20:46 328 15.6
2018-May-26 20:41 328 15.6
2018-May-26 20:35 328 15.6
2018-May-26 20:30 329 16.1
2018-May-26 20:25 281 16.7
2018-May-26 20:20 304 0 gusting 3 16.7
2018-May-26 20:15 276 16.1
2018-May-26 20:10 284 16.7
2018-May-26 20:04 278 0 gusting 2 16.7
2018-May-26 19:59 281 0 gusting 2 16.7
2018-May-26 19:54 260 16.7
2018-May-26 19:49 280 16.7
2018-May-26 19:44 280 17.2
2018-May-26 19:39 259 0 gusting 1 17.2
2018-May-26 19:33 269 0 gusting 4 17.2
2018-May-26 19:28 268 0 gusting 3 17.2
2018-May-26 19:23 307 16.7
2018-May-26 19:18 312 17.2
2018-May-26 19:13 280 17.8
2018-May-26 19:08 281 17.8
2018-May-26 19:03 277 18.3
2018-May-26 18:57 262 18.3
2018-May-26 18:52 342 0 gusting 2 18.9
2018-May-26 18:47 262 18.3
2018-May-26 18:42 238 18.3
2018-May-26 18:36 297 18.3
2018-May-26 18:31 295 18.9
2018-May-26 18:26 277 18.9
2018-May-26 18:21 275 18.9
2018-May-26 18:16 283 19.4
2018-May-26 18:11 285 19.4
2018-May-26 18:06 035 19.4
2018-May-26 18:00 300 0 gusting 3 19.4
2018-May-26 17:55 277 0 gusting 3 19.4
2018-May-26 17:50 274 19.4
2018-May-26 17:45 353 19.4
2018-May-26 17:40 287 0 gusting 2 19.4
2018-May-26 17:34 291 19.4
2018-May-26 17:29 258 20.0
2018-May-26 17:24 347 0 gusting 2 20.0
2018-May-26 17:19 285 0 gusting 4 19.4
2018-May-26 17:14 263 0 gusting 4 19.4
2018-May-26 17:09 259 0 gusting 2 19.4
2018-May-26 17:03 271 1 gusting 2 20.0
2018-May-26 16:58 277 0 gusting 2 20.0
2018-May-26 16:53 287 20.0
2018-May-26 16:48 339 20.0
2018-May-26 16:43 339 20.0
2018-May-26 16:38 131 20.6
2018-May-26 16:32 271 20.6
2018-May-26 16:27 255 20.6
2018-May-26 16:22 255 20.6
2018-May-26 16:17 255 20.6
2018-May-26 16:12 067 20.6
2018-May-26 16:06 067 20.6
2018-May-26 16:01 067 20.6
2018-May-26 15:56 067 21.1
2018-May-26 15:51 068 21.7
2018-May-26 15:46 068 21.7
2018-May-26 15:41 068 22.2
2018-May-26 15:35 069 22.8
2018-May-26 15:30 072 23.9
2018-May-26 15:25 233 23.9
2018-May-26 15:20 136 23.9
2018-May-26 15:15 281 23.3
2018-May-26 15:09 037 22.8
2018-May-26 15:04 058 22.8
2018-May-26 14:59 010 22.8
2018-May-26 14:54 044 22.8
2018-May-26 14:49 044 22.8
2018-May-26 14:44 077 23.3
2018-May-26 14:38 082 23.3
2018-May-26 14:33 129 23.3
2018-May-26 14:28 018 23.3
2018-May-26 14:23 006 23.3
2018-May-26 14:18 120 0 gusting 3 23.3
2018-May-26 14:13 117 23.9
2018-May-26 14:07 246 24.4
2018-May-26 14:02 084 24.4
2018-May-26 13:57 133 25.0
2018-May-26 13:52 057 0 gusting 6 25.6
2018-May-26 13:47 134 1 gusting 6 26.1
2018-May-26 13:42 155 1 gusting 6 27.2
2018-May-26 13:37 228 0 gusting 2 27.8
2018-May-26 13:31 129 27.8
2018-May-26 13:26 226 28.3
2018-May-26 13:21 235 27.2
2018-May-26 13:16 271 0 gusting 3 26.7
2018-May-26 13:11 255 0 gusting 3 26.7
2018-May-26 13:06 164 25.6
2018-May-26 13:00 236 25.0
2018-May-26 12:55 345 24.4
2018-May-26 12:50 346 25.0
2018-May-26 12:45 281 25.6
2018-May-26 12:40 249 26.1
2018-May-26 12:35 226 0 gusting 3 26.1
2018-May-26 12:30 235 0 gusting 3 26.1
2018-May-26 12:24 207 0 gusting 3 26.1
2018-May-26 12:19 256 25.6
2018-May-26 12:14 236 25.0
2018-May-26 12:09 138 0 gusting 3 25.6
2018-May-26 12:04 104 25.6
2018-May-26 11:59 222 0 gusting 4 25.6
2018-May-26 11:53 077 0 gusting 3 26.7
2018-May-26 11:48 005 0 gusting 5 26.7
2018-May-26 11:43 127 0 gusting 5 26.1
2018-May-26 11:38 142 1 gusting 5 25.6
2018-May-26 11:33 266 1 gusting 5 25.0
2018-May-26 11:28 113 0 gusting 4 25.0
2018-May-26 11:22 067 25.0
2018-May-26 11:17 125 0 gusting 3 25.6
2018-May-26 11:12 163 0 gusting 3 25.6
2018-May-26 11:07 111 25.6
2018-May-26 11:02 115 25.6
2018-May-26 10:57 146 25.6
2018-May-26 10:51 057 25.6
2018-May-26 10:46 354 25.6
2018-May-26 10:41 138 0 gusting 2 25.6
2018-May-26 10:36 054 25.6
2018-May-26 10:31 290 25.0
2018-May-26 10:26 048 24.4
2018-May-26 10:20 345 23.9
2018-May-26 10:15 035 23.9
2018-May-26 10:10 020 24.4
2018-May-26 10:05 028 24.4
2018-May-26 10:00 359 25.0
2018-May-26 09:55 071 25.6
2018-May-26 09:49 110 25.6
2018-May-26 09:44 138 25.6
2018-May-26 09:39 150 24.4
2018-May-26 09:34 019 24.4
2018-May-26 09:29 352 24.4
2018-May-26 09:24 329 24.4
2018-May-26 09:18 018 25.0
2018-May-26 09:13 007 0 gusting 1 25.0
2018-May-26 09:08 276 0 gusting 3 25.0
2018-May-26 09:03 105 25.6
2018-May-26 08:58 086 25.6
2018-May-26 08:52 046 25.0
2018-May-26 08:47 046 24.4
2018-May-26 08:42 238 0 gusting 3 25.0
2018-May-26 08:37 138 25.6
2018-May-26 08:32 173 24.4
2018-May-26 08:27 113 23.9
2018-May-26 08:21 074 23.9
2018-May-26 08:16 020 23.9
2018-May-26 08:11 046 23.9
2018-May-26 08:06 311 0 gusting 3 23.9
2018-May-26 08:01 078 0 gusting 5 24.4
2018-May-26 07:55 245 25.0
2018-May-26 07:50 284 0 gusting 3 25.6
2018-May-26 07:45 245 0 gusting 2 25.6
2018-May-26 07:40 023 0 gusting 4 25.6
2018-May-26 07:35 261 0 gusting 4 25.0
2018-May-26 07:30 287 0 gusting 3 25.6
2018-May-26 07:25 039 25.6
2018-May-26 07:19 143 25.6
2018-May-26 07:14 103 26.1
2018-May-26 07:09 124 25.6
2018-May-26 07:04 004 25.6
2018-May-26 06:58 254 26.1
2018-May-26 06:53 124 26.1
2018-May-26 06:48 231 25.6
2018-May-26 06:43 128 25.6
2018-May-26 06:38 349 25.0
2018-May-26 06:33 339 25.0
2018-May-26 06:28 297 24.4
2018-May-26 06:22 060 23.9
2018-May-26 06:17 087 23.9
2018-May-26 06:12 104 23.3
2018-May-26 06:07 143 22.8
2018-May-26 06:02 012 21.7
2018-May-26 05:57 012 20.6
2018-May-26 05:51 012 20.6
2018-May-26 05:46 013 21.7
2018-May-26 05:41 310 22.8
2018-May-26 05:36 301 22.8
2018-May-26 05:31 013 22.2
2018-May-26 05:26 013 21.7
2018-May-26 05:20 016 21.1
2018-May-26 05:15 328 21.1
2018-May-26 05:10 328 20.0
2018-May-26 05:05 328 19.4
2018-May-26 05:00 328 18.9
2018-May-26 04:55 328 18.9
2018-May-26 04:49 327 18.3
2018-May-26 04:44 328 17.2
2018-May-26 04:39 328 16.7
2018-May-26 04:34 327 16.1
2018-May-26 04:29 328 15.6
2018-May-26 04:24 327 14.4
2018-May-26 04:18 260 13.9
2018-May-26 04:13 260 13.3
2018-May-26 04:08 341 12.8
2018-May-26 04:03 342 12.2
2018-May-26 03:58 342 11.7
2018-May-26 03:53 341 11.1
2018-May-26 03:47 284 11.1
2018-May-26 03:42 284 11.1
2018-May-26 03:37 328 11.1
2018-May-26 03:32 328 10.6
2018-May-26 03:26 329 10.6
2018-May-26 03:21 328 10.6
2018-May-26 03:16 328 11.1
2018-May-26 03:11 283 11.1
2018-May-26 03:06 267 10.0
2018-May-26 03:00 097 10.0
2018-May-26 02:55 097 10.0
2018-May-26 02:50 097 10.0
2018-May-26 02:45 098 10.0
2018-May-26 02:40 097 10.0
2018-May-26 02:35 097 10.0
2018-May-26 02:29 100 10.0
2018-May-26 02:24 100 10.6
2018-May-26 02:19 101 10.6
2018-May-26 02:14 098 10.6
2018-May-26 02:09 099 10.6
2018-May-26 02:04 098 10.6
2018-May-26 01:58 102 10.6
2018-May-26 01:53 102 10.6
2018-May-26 01:48 101 10.6
2018-May-26 01:43 101 10.6
2018-May-26 01:38 101 10.6
2018-May-26 01:33 101 10.6
2018-May-26 01:27 101 10.6
2018-May-26 01:22 098 10.6
2018-May-26 01:17 098 11.1
2018-May-26 01:12 099 11.1
2018-May-26 01:07 105 11.1
2018-May-26 01:01 105 11.1
2018-May-26 00:56 269 11.7
2018-May-26 00:51 293 11.1
2018-May-26 00:46 162 11.1
2018-May-26 00:41 162 11.7
2018-May-26 00:36 263 11.1
2018-May-26 00:30 012 11.1
2018-May-26 00:25 015 11.1
2018-May-26 00:20 016 11.1
2018-May-26 00:15 015 11.1
2018-May-26 00:10 016 11.1
2018-May-26 00:05 015 11.7
2018-May-25 23:59 018 11.7
2018-May-25 23:54 308 11.7
2018-May-25 23:49 309 12.2
2018-May-25 23:44 309 12.2
2018-May-25 23:39 309 12.8
2018-May-25 23:34 309 12.8
2018-May-25 23:28 309 13.3
2018-May-25 23:23 231 14.4
2018-May-25 23:18 283 0 gusting 2 15.0
2018-May-25 23:13 274 0 gusting 4 15.0
2018-May-25 23:08 274 0 gusting 4 14.4
2018-May-25 23:03 270 0 gusting 3 15.0
2018-May-25 22:57 284 1 gusting 5 15.0
2018-May-25 22:52 257 2 gusting 5 15.0
2018-May-25 22:47 252 2 gusting 4 15.0
2018-May-25 22:42 330 2 gusting 5 14.4
2018-May-25 22:37 241 2 gusting 5 14.4
2018-May-25 22:32 278 0 gusting 5 13.9
2018-May-25 22:26 311 13.9
2018-May-25 22:21 285 13.9
2018-May-25 22:16 291 1 gusting 4 14.4
2018-May-25 22:11 252 1 gusting 4 13.9
2018-May-25 22:06 271 0 gusting 4 13.3
2018-May-25 22:00 280 12.8
2018-May-25 21:55 278 12.8
2018-May-25 21:50 290 12.2
2018-May-25 21:45 240 12.2
2018-May-25 21:40 240 12.8
2018-May-25 21:35 240 12.8
2018-May-25 21:30 240 12.8
2018-May-25 21:25 240 12.8
2018-May-25 21:20 238 13.3
2018-May-25 21:14 238 13.3
2018-May-25 21:09 284 12.8
2018-May-25 21:04 347 12.8
2018-May-25 20:59 347 13.3
2018-May-25 20:54 347 13.3
2018-May-25 20:49 347 13.9
2018-May-25 20:44 347 13.9
2018-May-25 20:38 347 14.4
2018-May-25 20:33 347 0 gusting 3 15.0
2018-May-25 20:28 300 0 gusting 3 15.6
2018-May-25 20:23 273 0 gusting 3 15.0
2018-May-25 20:18 294 14.4
2018-May-25 20:13 308 14.4
2018-May-25 20:08 287 14.4
2018-May-25 20:02 281 0 gusting 2 15.0
2018-May-25 19:57 273 0 gusting 3 15.0
2018-May-25 19:52 289 1 gusting 4 15.6
2018-May-25 19:47 288 1 gusting 5 15.6
2018-May-25 19:42 276 1 gusting 5 15.6
2018-May-25 19:36 273 1 gusting 5 16.1
2018-May-25 19:26 262 1 gusting 5 16.1
2018-May-25 19:21 262 1 gusting 5 16.1
2018-May-25 19:16 287 0 gusting 3 16.1
2018-May-25 19:11 284 1 gusting 4 16.7
2018-May-25 19:06 269 1 gusting 4 16.7
2018-May-25 19:00 259 1 gusting 4 16.7
2018-May-25 18:55 275 1 gusting 3 16.7
2018-May-25 18:50 273 1 gusting 5 17.2
2018-May-25 18:45 269 2 gusting 5 17.2
2018-May-25 18:40 273 3 gusting 5 17.2
2018-May-25 18:35 264 2 gusting 5 17.2
2018-May-25 18:29 277 1 gusting 3 17.2
2018-May-25 18:24 266 1 gusting 6 17.8
2018-May-25 18:14 260 1 gusting 4 17.8
2018-May-25 18:09 291 0 gusting 4 17.8
2018-May-25 18:03 296 17.8
2018-May-25 17:58 291 18.3
2018-May-25 17:53 295 0 gusting 1 18.3
2018-May-25 17:48 276 0 gusting 2 18.9
2018-May-25 17:43 270 0 gusting 2 18.9
2018-May-25 17:38 301 0 gusting 2 19.4
2018-May-25 17:33 263 19.4
2018-May-25 17:28 271 0 gusting 2 20.0
2018-May-25 17:23 271 1 gusting 5 20.0
2018-May-25 17:17 258 1 gusting 5 20.0
2018-May-25 17:12 287 0 gusting 3 20.0
2018-May-25 17:07 269 0 gusting 3 20.0
2018-May-25 17:02 263 0 gusting 3 20.0
2018-May-25 16:56 348 20.0
2018-May-25 16:51 281 20.0
2018-May-25 16:46 238 20.0
2018-May-25 16:41 287 20.0
2018-May-25 16:36 287 20.6
2018-May-25 16:30 284 0 gusting 2 20.6
2018-May-25 16:25 287 0 gusting 3 20.6
2018-May-25 16:20 283 0 gusting 3 20.6
2018-May-25 16:15 306 1 gusting 3 20.6
2018-May-25 16:10 263 1 gusting 5 20.6
2018-May-25 16:04 293 2 gusting 6 21.1
2018-May-25 15:59 305 1 gusting 6 21.1
2018-May-25 15:54 288 1 gusting 5 21.1
2018-May-25 15:49 278 2 gusting 5 21.7
2018-May-25 15:44 277 2 gusting 6 21.7
2018-May-25 15:38 290 2 gusting 6 22.2
2018-May-25 15:33 259 2 gusting 6 22.2
2018-May-25 15:28 284 2 gusting 6 22.8
2018-May-25 15:23 262 1 gusting 6 23.3
2018-May-25 15:18 269 0 gusting 6 24.4
2018-May-25 15:13 256 0 gusting 6 25.0
2018-May-25 15:07 236 1 gusting 4 25.6
2018-May-25 15:02 281 0 gusting 4 25.6
2018-May-25 14:57 013 26.7
2018-May-25 14:52 034 27.8
2018-May-25 14:47 243 27.2
2018-May-25 14:42 123 27.2
2018-May-25 14:36 193 27.8
2018-May-25 14:31 249 26.7
2018-May-25 14:26 241 26.1
2018-May-25 14:21 285 26.1
2018-May-25 14:16 052 0 gusting 2 26.7
2018-May-25 14:11 235 0 gusting 2 26.1
2018-May-25 14:06 200 25.6
2018-May-25 14:00 235 25.6
2018-May-25 13:55 236 25.6
2018-May-25 13:50 203 0 gusting 3 26.1
2018-May-25 13:45 173 0 gusting 3 25.6
2018-May-25 13:40 232 25.6
2018-May-25 13:34 354 26.1
2018-May-25 13:29 221 0 gusting 4 26.7
2018-May-25 13:24 160 0 gusting 4 26.7
2018-May-25 13:19 222 1 gusting 4 25.6
2018-May-25 13:14 259 1 gusting 6 25.6
2018-May-25 13:09 243 1 gusting 6 24.4
2018-May-25 13:03 290 1 gusting 6 24.4
2018-May-25 12:58 270 1 gusting 4 23.9
2018-May-25 12:53 288 2 gusting 6 23.3
2018-May-25 12:48 288 2 gusting 7 23.3
2018-May-25 12:43 236 2 gusting 7 22.8
2018-May-25 12:38 259 1 gusting 5 21.7
2018-May-25 12:32 281 1 gusting 4 21.7
2018-May-25 12:27 319 1 gusting 5 21.7
2018-May-25 12:22 284 1 gusting 6 21.7
2018-May-25 12:17 257 2 gusting 6 21.7
2018-May-25 12:12 221 3 gusting 9 21.7
2018-May-25 12:07 233 4 gusting 9 21.7
2018-May-25 12:01 274 4 gusting 9 21.7
2018-May-25 11:56 256 5 gusting 9 21.1
2018-May-25 11:51 254 4 gusting 9 21.1
2018-May-25 11:46 276 3 gusting 6 21.1
2018-May-25 11:41 298 3 gusting 10 21.1
2018-May-25 11:35 255 3 gusting 10 21.1
2018-May-25 11:30 259 2 gusting 10 21.1
2018-May-25 11:25 243 2 gusting 8 21.1
2018-May-25 11:20 262 3 gusting 7 20.6
2018-May-25 11:15 266 3 gusting 6 20.6
2018-May-25 11:10 280 2 gusting 6 21.1
2018-May-25 11:04 259 1 gusting 6 21.7
2018-May-25 10:59 280 2 gusting 7 21.7
2018-May-25 10:54 207 3 gusting 7 22.2
2018-May-25 10:49 219 3 gusting 8 23.3
2018-May-25 10:44 260 3 gusting 8 23.9
2018-May-25 10:38 229 1 gusting 7 25.0
2018-May-25 10:33 280 0 gusting 5 26.1
2018-May-25 10:23 053 0 gusting 6 27.2
2018-May-25 10:18 028 0 gusting 4 27.2
2018-May-25 10:13 124 1 gusting 4 27.2
2018-May-25 10:08 123 1 gusting 4 27.8
2018-May-25 10:02 170 0 gusting 4 27.8
2018-May-25 09:57 136 0 gusting 6 27.8
2018-May-25 09:52 180 1 gusting 6 27.8
2018-May-25 09:47 138 1 gusting 6 27.8
2018-May-25 09:42 073 1 gusting 6 27.8
2018-May-25 09:36 096 1 gusting 6 27.8
2018-May-25 09:31 149 1 gusting 6 27.8
2018-May-25 09:26 225 2 gusting 6 27.2
2018-May-25 09:21 160 1 gusting 6 27.2
2018-May-25 09:16 127 1 gusting 6 27.2
2018-May-25 09:11 033 1 gusting 6 26.7
2018-May-25 09:06 117 0 gusting 6 26.7
2018-May-25 09:00 114 0 gusting 6 26.7